CW5102 Weather Reports


Display with metric or nautical units.
time (UTC)temp
F
wind
direction
speed
MPH
gust
MPH
rain 1hr
in
rain 24hr
in
rain mn
in
humidity
%
barometer
mb
20260506044705 40 55 2.0 9.0 0.00 0.00 0.00 47 1012.4
20260506044205 40 43 2.0 8.0 0.00 0.00 0.00 48 1012.4
20260506043706 40 5 2.0 8.0 0.00 0.00 0.00 48 1012.4
20260506042705 40 34 3.0 7.0 0.00 0.00 0.00 47 1012.4
20260506042205 41 28 0.0 5.0 0.00 0.00 0.00 47 1012.4
20260506041705 41 30 0.0 5.0 0.00 0.00 0.00 47 1012.4
20260506041205 41 0 1.0 5.0 0.00 0.00 0.00 47 1012.4
20260506040706 41 10 2.0 5.0 0.00 0.00 0.00 46 1012.5
20260506040205 41 358 1.0 3.0 0.00 0.00 0.00 47 1012.5
20260506035705 41 350 1.0 7.0 0.00 0.00 0.00 46 1012.5
20260506035205 41 10 0.0 9.0 0.00 0.00 0.00 46 1012.5
20260506034705 41 29 1.0 9.0 0.00 0.00 0.00 46 1012.5
20260506034206 42 33 1.0 7.0 0.00 0.00 0.00 45 1012.4
20260506033706 42 41 1.0 10.0 0.00 0.00 0.00 45 1012.3
20260506033205 42 65 1.0 10.0 0.00 0.00 0.00 45 1012.3
20260506032705 42 44 1.0 12.0 0.00 0.00 0.00 45 1012.2
20260506031705 42 38 2.0 12.0 0.00 0.00 0.00 44 1012.2
20260506031205 42 18 5.0 12.0 0.00 0.00 0.00 44 1012.2
20260506030705 43 9 3.0 12.0 0.00 0.00 0.00 44 1012.2
20260506030205 43 43 3.0 12.0 0.00 0.00 0.00 43 1012.1
20260506025706 43 36 3.0 8.0 0.00 0.00 0.00 44 1012.0
20260506025205 43 39 2.0 10.0 0.00 0.00 0.00 43 1012.0
20260506024707 43 64 2.0 12.0 0.00 0.00 0.00 43 1011.8
20260506024206 44 27 5.0 12.0 0.00 0.00 0.00 42 1011.7
20260506023706 44 13 2.0 9.0 0.00 0.00 0.00 43 1011.6
20260506023206 44 0 1.0 12.0 0.00 0.00 0.00 42 1011.6
20260506022706 44 348 1.0 12.0 0.00 0.00 0.00 42 1011.5
20260506021706 44 347 4.0 12.0 0.00 0.00 0.00 41 1011.5
20260506021206 44 12 3.0 13.0 0.00 0.00 0.00 41 1011.4
20260506020205 45 0 1.0 7.0 0.00 0.00 0.00 41 1011.2
20260506015706 45 17 1.0 7.0 0.00 0.00 0.00 40 1011.1
20260506015205 45 32 1.0 7.0 0.00 0.00 0.00 39 1011.0
20260506014706 45 16 1.0 14.0 0.00 0.00 0.00 39 1010.9
20260506014206 45 4 2.0 14.0 0.00 0.00 0.00 39 1010.9
20260506005703 47 352 3.0 12.0 0.00 0.00 0.00 36 1010.5
20260506004203 48 5 7.0 17.0 0.00 0.00 0.00 35 1010.3
20260506003702 48 4 5.0 15.0 0.00 0.00 0.00 34 1010.3
20260506002703 48 24 4.0 15.0 0.00 0.00 0.00 34 1010.1
20260506002204 48 10 2.0 15.0 0.00 0.00 0.00 34 1010.1
20260506001203 49 345 5.0 13.0 0.00 0.00 0.00 34 1009.9
20260506000205 49 345 2.0 9.0 0.00 0.00 0.00 34 1009.9
20260505235703 49 13 2.0 12.0 0.00 0.00 0.00 34 1009.9
20260505235203 49 352 1.0 12.0 0.00 0.00 0.00 34 1009.8
20260505234704 49 19 3.0 12.0 0.00 0.00 0.00 33 1009.8
20260505234203 49 19 2.0 10.0 0.00 0.00 0.00 33 1009.9
20260505233703 49 1 1.0 10.0 0.00 0.00 0.00 33 1009.7
20260505233202 49 13 5.0 10.0 0.00 0.00 0.00 33 1009.7
20260505232703 49 337 2.0 14.0 0.00 0.00 0.00 33 1009.7
20260505232203 49 23 5.0 14.0 0.00 0.00 0.00 32 1009.6
20260505231703 49 344 1.0 13.0 0.00 0.00 0.00 33 1009.6
20260505231203 49 356 1.0 12.0 0.00 0.00 0.00 33 1009.6
20260505225202 51 359 5.0 12.0 0.00 0.00 0.00 32 1009.6
20260505224703 51 328 2.0 10.0 0.00 0.00 0.00 34 1009.5
20260505224203 50 313 1.0 10.0 0.00 0.00 0.00 33 1009.5
20260505223703 50 12 4.0 10.0 0.00 0.00 0.00 34 1009.6
20260505223203 50 310 2.0 10.0 0.00 0.00 0.00 35 1009.5
20260505222203 50 356 4.0 10.0 0.00 0.00 0.00 33 1009.6
20260505221702 50 278 2.0 15.0 0.00 0.00 0.00 33 1009.6
20260505221203 50 333 2.0 16.0 0.00 0.00 0.00 33 1009.5
20260505215703 51 5 1.0 8.0 0.00 0.00 0.00 33 1009.6
20260505215203 51 337 2.0 10.0 0.00 0.00 0.00 34 1009.7
20260505214702 50 0 1.0 13.0 0.00 0.00 0.00 34 1009.8
20260505213203 50 0 1.0 12.0 0.00 0.00 0.00 33 1009.8
20260505212203 51 3 6.0 17.0 0.00 0.00 0.00 32 1009.8
20260505211702 51 14 7.0 16.0 0.00 0.00 0.00 31 1009.8
20260505211203 51 346 3.0 16.0 0.00 0.00 0.00 33 1009.9
20260505210703 51 9 4.0 13.0 0.00 0.00 0.00 32 1009.8
20260505210202 52 356 1.0 13.0 0.00 0.00 0.00 33 1009.9
20260505205703 51 357 0.0 9.0 0.00 0.00 0.00 34 1009.9
20260505204204 51 350 0.0 13.0 0.00 0.00 0.00 33 1009.8
20260505203703 51 319 3.0 13.0 0.00 0.00 0.00 33 1009.9
20260505203203 51 248 3.0 16.0 0.00 0.00 0.00 33 1009.9
20260505202703 51 40 3.0 16.0 0.00 0.00 0.00 32 1010.0
20260505202203 51 12 1.0 12.0 0.00 0.00 0.00 34 1010.0
20260505201703 51 29 6.0 14.0 0.00 0.00 0.00 32 1010.0
20260505201203 51 359 2.0 14.0 0.00 0.00 0.00 33 1010.0
20260505200703 51 10 3.0 10.0 0.00 0.00 0.00 33 1010.0
20260505195703 51 29 6.0 14.0 0.00 0.00 0.00 31 1010.0
20260505194703 51 22 4.0 15.0 0.00 0.00 0.00 32 1010.0
20260505193704 51 15 3.0 12.0 0.00 0.00 0.00 33 1009.9
20260505192703 51 36 5.0 12.0 0.00 0.00 0.00 31 1009.9
20260505192204 51 352 4.0 13.0 0.00 0.00 0.00 33 1010.0
20260505191703 51 25 2.0 13.0 0.00 0.00 0.00 32 1009.9
20260505191203 52 354 4.0 12.0 0.00 0.00 0.00 30 1010.0
20260505190703 52 274 1.0 10.0 0.00 0.00 0.00 33 1009.9
20260505190204 52 342 2.0 10.0 0.00 0.00 0.00 33 1010.0
20260505185203 52 321 2.0 12.0 0.00 0.00 0.00 33 1010.0
20260505183703 50 341 1.0 13.0 0.00 0.00 0.00 34 1010.0
20260505183203 50 19 1.0 13.0 0.00 0.00 0.00 34 1009.9
20260505182203 50 5 3.0 10.0 0.00 0.00 0.00 33 1010.0
20260505181703 50 18 2.0 12.0 0.00 0.00 0.00 33 1010.2
20260505180704 50 311 2.0 16.0 0.00 0.00 0.00 34 1010.1
20260505180204 50 1 5.0 14.0 0.00 0.00 0.00 32 1010.1
20260505175704 50 15 1.0 8.0 0.00 0.00 0.00 34 1010.0
20260505174703 50 0 2.0 14.0 0.00 0.00 0.00 33 1010.1
20260505174203 50 29 2.0 14.0 0.00 0.00 0.00 33 1010.1
20260505173703 50 18 2.0 14.0 0.00 0.00 0.00 33 1010.1
20260505173203 50 323 1.0 7.0 0.00 0.00 0.00 34 1010.1
20260505172704 50 341 3.0 10.0 0.00 0.00 0.00 33 1010.0
20260505172203 49 308 2.0 12.0 0.00 0.00 0.00 34 1010.1
20260505171703 49 0 3.0 12.0 0.00 0.00 0.00 33 1010.1
20260505170703 49 6 3.0 12.0 0.00 0.00 0.00 33 1010.0
20260505165703 49 0 2.0 12.0 0.00 0.00 0.00 33 1010.1
20260505165203 49 299 3.0 14.0 0.00 0.00 0.00 34 1010.1
20260505164203 49 56 1.0 13.0 0.00 0.00 0.00 35 1010.1
20260505163203 48 355 0.0 13.0 0.00 0.00 0.00 36 1010.0
20260505162203 48 1 5.0 12.0 0.00 0.00 0.00 34 1010.1
20260505161203 47 68 5.0 13.0 0.00 0.00 0.00 33 1010.0
20260505160703 47 272 1.0 15.0 0.00 0.00 0.00 34 1010.1
20260505153203 46 48 0.0 9.0 0.00 0.00 0.00 36 1010.0
20260505152203 46 7 1.0 12.0 0.00 0.00 0.00 37 1010.0
20260505151704 46 42 3.0 12.0 0.00 0.00 0.00 35 1010.0
20260505151203 46 26 1.0 9.0 0.00 0.00 0.00 38 1009.9
20260505150204 45 17 2.0 10.0 0.00 0.00 0.00 38 1009.9
20260505140203 43 358 0.0 6.0 0.00 0.00 0.00 44 1009.5
20260505130204 39 28 0.0 6.0 0.00 0.00 0.00 46 1009.1
20260505124703 39 14 3.0 12.0 0.00 0.00 0.00 45 1008.9
20260505124204 39 59 2.0 12.0 0.00 0.00 0.00 45 1008.8
20260505122703 38 4 5.0 17.0 0.00 0.00 0.00 46 1008.6
20260505122204 38 27 5.0 17.0 0.00 0.00 0.00 47 1008.4
20260505121703 38 6 4.0 17.0 0.00 0.00 0.00 48 1008.4
20260505121203 38 47 2.0 9.0 0.00 0.00 0.00 49 1008.3
20260505120703 38 15 5.0 8.0 0.00 0.00 0.00 50 1008.4
20260505120203 38 0 2.0 9.0 0.00 0.00 0.00 52 1008.2
20260505115704 38 65 1.0 10.0 0.00 0.00 0.00 53 1008.1
20260505115203 38 35 3.0 10.0 0.00 0.00 0.00 53 1008.0
20260505114703 38 23 3.0 10.0 0.00 0.00 0.00 54 1008.0
20260505114204 38 22 1.0 10.0 0.00 0.00 0.00 55 1007.9
20260505113704 38 46 2.0 10.0 0.00 0.00 0.00 55 1007.7
20260505113203 38 0 1.0 6.0 0.00 0.00 0.00 56 1007.8
20260505112704 38 17 2.0 7.0 0.00 0.00 0.00 56 1007.7
20260505112203 38 26 3.0 10.0 0.00 0.00 0.00 56 1007.7
20260505111704 38 6 3.0 10.0 0.00 0.00 0.00 55 1007.7
20260505110704 39 10 2.0 9.0 0.00 0.00 0.00 56 1007.5
20260505110203 39 4 1.0 9.0 0.00 0.00 0.00 56 1007.4
20260505101704 39 41 2.0 9.0 0.00 0.00 0.00 56 1007.4
20260505101204 40 9 1.0 9.0 0.00 0.00 0.00 56 1007.3
20260505100704 40 25 3.0 9.0 0.00 0.00 0.00 56 1007.2
20260505095703 40 27 1.0 9.0 0.00 0.00 0.00 56 1007.2
20260505095203 40 31 3.0 9.0 0.00 0.00 0.00 55 1007.1
20260505094704 40 50 2.0 8.0 0.00 0.00 0.00 56 1007.2
20260505094204 40 52 1.0 8.0 0.00 0.00 0.00 56 1007.1
20260505093703 40 25 1.0 9.0 0.00 0.00 0.00 55 1007.1
20260505093204 40 34 4.0 9.0 0.00 0.00 0.00 54 1007.1
20260505092704 40 5 1.0 7.0 0.00 0.00 0.00 54 1007.0
20260505092203 40 5 3.0 7.0 0.00 0.00 0.00 54 1007.0
20260505091704 40 32 2.0 10.0 0.00 0.00 0.00 54 1007.0
20260505091204 40 2 4.0 10.0 0.00 0.00 0.00 54 1006.9
20260505090704 40 28 3.0 9.0 0.00 0.00 0.00 54 1006.9
20260505090204 41 2 2.0 9.0 0.00 0.00 0.00 54 1006.8
20260505085204 41 46 1.0 12.0 0.00 0.00 0.00 53 1006.7
20260505084704 41 342 1.0 12.0 0.00 0.00 0.00 53 1006.7
20260505084205 41 23 1.0 12.0 0.00 0.00 0.00 53 1006.6
20260505083703 41 8 3.0 12.0 0.00 0.00 0.00 53 1006.6
20260505083205 41 352 1.0 7.0 0.00 0.00 0.00 52 1006.4
20260505082705 41 32 2.0 9.0 0.00 0.00 0.00 52 1006.4
20260505082204 41 23 2.0 9.0 0.00 0.00 0.00 51 1006.2
20260505081705 41 2 3.0 8.0 0.00 0.00 0.00 52 1006.3
20260505081205 41 333 1.0 7.0 0.00 0.00 0.00 52 1006.3
20260505080704 41 292 2.0 7.0 0.00 0.00 0.00 51 1006.2
20260505080205 41 358 1.0 7.0 0.00 0.00 0.00 51 1006.1
20260505075705 42 329 0.0 7.0 0.00 0.00 0.00 50 1006.1
20260505075205 42 11 1.0 9.0 0.00 0.00 0.00 50 1006.1
20260505074204 42 358 1.0 9.0 0.00 0.00 0.00 50 1006.2
20260505073205 42 12 1.0 6.0 0.00 0.00 0.00 50 1006.2
20260505072705 42 13 1.0 6.0 0.00 0.00 0.00 50 1006.1
20260505072205 42 2 0.0 12.0 0.00 0.00 0.00 50 1006.2
20260505071705 42 358 0.0 12.0 0.00 0.00 0.00 49 1006.2
20260505071205 42 3 2.0 12.0 0.00 0.00 0.00 49 1006.2
20260505070705 42 9 3.0 7.0 0.00 0.00 0.00 48 1006.1
20260505070204 42 29 1.0 8.0 0.00 0.00 0.00 49 1006.1
20260505065705 42 344 1.0 10.0 0.00 0.00 0.00 48 1006.2
20260505065205 43 1 1.0 10.0 0.00 0.00 0.00 48 1006.2
20260505064705 43 0 1.0 9.0 0.00 0.00 0.00 48 1006.3
20260505063705 43 14 1.0 8.0 0.00 0.00 0.00 48 1006.1
20260505063205 43 11 1.0 8.0 0.00 0.00 0.00 48 1006.1
20260505062205 43 10 4.0 8.0 0.00 0.00 0.00 47 1006.3
20260505061705 43 9 0.0 7.0 0.00 0.00 0.00 48 1006.3
20260505061205 43 357 1.0 7.0 0.00 0.00 0.00 47 1006.3
20260505060705 44 9 1.0 9.0 0.00 0.00 0.00 47 1006.3
20260505060205 44 6 2.0 9.0 0.00 0.00 0.00 47 1006.4
20260505055705 44 2 2.0 12.0 0.00 0.00 0.00 47 1006.2
20260505055205 44 22 2.0 12.0 0.00 0.00 0.00 47 1006.2
20260505054705 44 0 1.0 7.0 0.00 0.00 0.00 48 1006.1
20260505054205 44 4 2.0 7.0 0.00 0.00 0.00 47 1006.1
20260505053705 44 20 2.0 7.0 0.00 0.00 0.00 48 1006.0
20260505053205 44 5 1.0 5.0 0.00 0.00 0.00 47 1005.9
20260505052705 44 46 0.0 8.0 0.00 0.00 0.00 48 1006.0
20260505052205 44 43 2.0 8.0 0.00 0.00 0.00 48 1006.0
20260505051705 44 344 1.0 5.0 0.00 0.00 0.00 48 1005.8
20260505051205 45 0 0.0 8.0 0.00 0.00 0.00 47 1005.8
20260505050704 45 353 1.0 8.0 0.00 0.00 0.00 47 1005.7
20260505050205 45 358 2.0 8.0 0.00 0.00 0.00 46 1005.8